Showing default

COSMOS 2384, 27055

Orbit data source: Space-Track

COSMOS 2384, 27055 is a payload satellite owned by KVR (CIS) in LEO that was launched on Fri, 28 Dec 2001 UTC via a TSIKLON-3 launch vehicle from the Plesetsk Missile And Space Complex (PKMTR). Payload-class satellites include a variety of spacecraft equipped with specific instruments for various scientific and technological missions. These include communications satellites like Starlink; space stations such as the ISS; scientific satellites like the Hubble; Earth observation satellites from companies like Planet Labs, Umbra, and HawkEye 360; GPS; miniature CubeSats for education and research; and military/defense satellites.

Loading next visibility...
Identifier
27055, 2001-058A
Orbit
LEO
Last TLE update
10 hours ago
Origin
Manufacturer
NPO PM
Mission
Non-operational Defense Communications
Bus & Motor
STRELA-3, Unknown motor
Mass
225 kg wet, 225 kg dry
Launch date (UTC)
2001-12-28 (24 years ago)
Launch vehicle
TSIKLON-3
Launch site
Plesetsk Missile And Space Complex (PKMTR)
Object type
Payload
Rocket body
Debris
Shape & HBR
Cyl + 1 Arm, 7 m
Radar Cross Section
1.257 m², Medium (>0.1 m² and < 1m²)

Expand to show TLE details & history

TLE from 10 hours ago
0 COSMOS 2384
1 27055U 01058A   25181.86550777  .00000032  00000-0  12473-3 0  9990
2 27055  82.5455  97.7643 0009840 334.0288  26.0307 12.59880107 80811
Epoch: 2025-06-30T20:46Z
TLE epoch observation values (Epoch: 2025-06-30T20:46:19.871Z)
Latitude
0.00002°
Longitude
-132.98767°
Altitude
1,419.267 km
Speed
7.154 km/s
True Right ascension
06h 31m 03s
True Declination
0° 00' 00"
Sunlit
Object was in daylight at epoch
Visualization orbit readout
Latitude
25.23366°
Longitude
43.21938°
Altitude
1,434.022 km
Speed
7.143 km/s
Apparent Right ascension
17h 13m 00s
Apparent Declination
-18° 14' 21"
Sunlit
Object is in full shadow
Visualization observer readout
Local Sidereal Time
18:45:04
Azimuth
204.876° SW
Elevation
28.01°
Doppler factor
1
Orbital elements
Apogee altitude
1,428.439 km
Perigee altitude
1,413.091 km
Semi-major axis
7,798.902 km
Eccentricity
0.00098
Inclination
82.5455°
RAAN
97.7643°
Arg. of periapsis
334.0288°
True anomaly
Unknown
Mean anomaly
26.0307°
Eccentric anomaly
Unknown
Mean motion
3.15132 °/min
Orbital period
114.24 mins
BSTAR
0.00012473
Loading maneuver chart data...
Loading SW <> Apogee altitude chart data...
Loading historical data...
Loading historical data...
Loading historical data...
Loading historical data...
Loading historical data...
Loading historical data...
Loading historical data...

COSMOS 2384 Visibility forecast

Observer location: undefined°, undefined°

Span
Click to sort rows by Start time (UTC) header in descending order
Start Az.
Max El. time (UTC)
Max El. Az.
Max El.
End time (UTC)
End Az.
12 mins2025-07-01 17:51:10.626Z135.37° SSE2025-07-01 17:57:10.626Z81.31° E26.754°2025-07-01 18:03:10.626Z30.49° NE
14 mins2025-07-01 19:45:10.626Z210.07° SW2025-07-01 19:52:10.626Z294.151° NW38.982°2025-07-01 19:59:10.626Z357.753° N
15 mins2025-07-02 05:47:10.626Z359.848° N2025-07-02 05:54:10.626Z69.892° E41.946°2025-07-02 06:02:10.626Z159.551° S
|